Flag for Switzerland Weather past 2 weeks in Zug, Zug, Switzerland

Now
67 °F

Mild.


Feels Like: 67 °F
Forecast: 44 / 69 °F
Wind: 6 mph from Northeast

Location: Zurich Town / Ville.

Current Time: Oct 2, 2014 at 4:42:30 PM

Latest Report: Oct 2, 2014 at 4:00 PM


Visibility: N/A

Pressure: 30.26 "Hg

Humidity: 64%

Dew point: 54 °F

Location of ZugLocation

Historic Weather in Zug — Graph

°F

Zug temperature yesterday

Maximum temperature yesterday: 66 °F (at 4:00 PM)
Minimum temperature yesterday: 58 °F (at 9:00 AM)
Average temperature yesterday: 60 °F

Past Weeks' High & Low Weather Summary

 TemperatureHumidityPressure
High73 °F (Sep 20, 3:00 PM)100% (Sep 29, 9:00 AM)30.36 "Hg (Sep 29, 9:00 AM)
Low41 °F (Sep 23, 6:00 AM)47% (Sep 23, 4:00 PM)29.81 "Hg (Sep 17, 5:00 PM)
Average58 °F84%30.15 "Hg
* Reported Sep 17 3:00 PM — Oct 2 3:00 PM, Zug, Weather by CustomWeather, © 2014

Note: Actual official high and low records may vary slightly from our data, if they occured in-between our weather recording intervals... More about our weather records

Advertising

Zug weather history for previous 24 hours

 ConditionsComfort  
Time TempWeatherWind HumidityBarometerVisibility
3:00 PM
Oct 2
66 °FMild.8 mph65%30.27 "HgN/A
2:00 PM65 °FScattered clouds.8 mph71%30.29 "HgN/A
1:00 PM63 °FMild.9 mph75%30.32 "HgN/A
12:00 PM62 °FCool.8 mph83%30.33 "HgN/A
11:00 AM59 °FCool.3 mph91%30.34 "HgN/A
10:00 AM57 °FCool.1 mph91%30.35 "HgN/A
9:00 AM56 °FCool.3 mph95%30.36 "HgN/A
8:00 AM55 °FFog.3 mph97%30.36 "HgN/A
7:00 AM55 °FCool.5 mph97%30.35 "HgN/A
6:00 AM55 °FCool.3 mph99%30.34 "HgN/A
5:00 AM55 °FCool.5 mph98%30.34 "HgN/A
4:00 AM56 °FCool.3 mph97%30.34 "HgN/A
3:00 AM56 °FCool.2 mph97%30.35 "HgN/A
2:00 AM57 °FCool.1 mph96%30.35 "HgN/A
1:00 AM58 °FCool.No wind97%30.35 "HgN/A
12:00 AM58 °FCool.2 mph95%30.35 "HgN/A
11:00 PM
Oct 1
59 °FCool.1 mph95%30.35 "HgN/A
10:00 PM58 °FCool.1 mph93%30.34 "HgN/A
9:00 PM58 °FCool.No wind92%30.33 "HgN/A
8:00 PM61 °FCool.2 mph90%30.31 "HgN/A
7:00 PM62 °FCool.2 mph84%30.29 "HgN/A
6:00 PM63 °FMild.2 mph84%30.29 "HgN/A
5:00 PM65 °FMild.6 mph72%30.27 "HgN/A
4:00 PM66 °FMild.6 mph80%30.27 "HgN/A
Weather by CustomWeather, © 2014

See weather overviewHow to use our weather pages